Regional Weather Roundup
Issued by NWS Jackson, KY

Home | Current Version | Previous Version | Graphics & Text | Print | Product List | Glossary On
Versions: 1 2 3 4 5 6 7 8 9 10 11 12 13 14 15 16 17 18 19 20 21 22 23 24 25 26 27
000
ASUS43 KJKL 041110
RWRJKL

EAST KENTUCKY HOURLY WEATHER ROUNDUP
NATIONAL WEATHER SERVICE JACKSON KY
700 AM EDT WED MAY 04 2016

NOTE: "FAIR" INDICATES FEW OR NO CLOUDS BELOW 12,000 FEET WITH
NO SIGNIFICANT WEATHER AND/OR OBSTRUCTIONS TO VISIBILITY.

* THESE REPORTS ARE NOT UNDER NWS QUALITY CONTROL AND MAY NOT
  REPORT WEATHER SUCH AS PRECIPITATION AND FOG.

KYZ079-080-083-085-087-088-110-112-115-119-120-041200
...EASTERN KENTUCKY...

CITY           SKY/WX    TMP DP  RH WIND       PRES   REMARKS
JACKSON        CLOUDY    50  47  89 CALM      29.78F
LONDON         CLOUDY    51  44  77 SW3       29.81S
SOMERSET*      PTCLDY    46  46 100 CALM      29.83S
MONTICELLO*    CLEAR     45  44  97 NE7       29.84F
WILLIAMSBURG*  CLOUDY    50  50 100 CALM      29.82S
MIDDLESBORO*   CLOUDY    52  46  78 CALM      29.82S
HARLAN APT*    CLOUDY    50  46  87 CALM      29.81S
HAZARD APT*    CLOUDY    52  48  87 SW3       29.80S
BLACK MTN*       N/A     41  41 100 SW2         N/A
PIKE CO APT*   LGT RAIN  49  48  95 SW3       29.78S
BIG SANDY APT* DRIZZLE   50  49  97 W3        29.78S
MOREHEAD APT*  CLOUDY    48  46  93 SW5       29.79S
$$

KYZ035-036-041-042-044-050-067-078-099-041200
...CENTRAL KENTUCKY...

CITY           SKY/WX    TMP DP  RH WIND       PRES   REMARKS
MT STERLING*   PTCLDY    46  46 100 CALM      29.79F
FLEMING/MASON* PTCLDY    47  46  99 S6        29.77F
DANVILLE*      CLEAR     46  43  87 SW3       29.81S
RICHMOND*      CLEAR     48  45  87 SW7       29.79S
LEXINGTON      CLOUDY    48  44  86 SW8       29.78S
FRANKFORT      CLOUDY    50  44  80 SW8       29.76F
LOUISVILLE     PTCLDY    52  43  71 SW5       29.76F
LEBANON*       CLOUDY    48  45  87 S7        29.80S
BOWLING GREEN  PTCLDY    48  44  86 SW5       29.83F
$$

KYZ091>093-OHZ055-061-077-WVZ005-015-034-035-042-041200
...SOUTHERN OHIO/WEST VIRGINIA...

CITY           SKY/WX    TMP DP  RH WIND       PRES   REMARKS
COVINGTON      CLOUDY    48  46  93 SW6       29.73F
COLUMBUS       PTCLDY    45  45 100 SE3       29.72S FOG
DAYTON         CLOUDY    48  45  89 SW10      29.70F
WILMINGTON     PTCLDY    46  44  93 S7        29.72F FOG
HUNTINGTON     CLOUDY    52  50  93 SW6       29.76S
CHARLESTON     RAIN      53  50  89 SW7       29.75S FOG
PINEVILLE*     CLOUDY    49  47  91 MISG      29.82R FOG
BECKLEY        CLOUDY    48  46  93 SW5       29.76S
$$

VAZ002-007-008-TNZ017-027-036-066-071-041200
...SOUTHWEST VIRGINIA/EAST TENNESSEE...

CITY           SKY/WX    TMP DP  RH WIND       PRES   REMARKS
WISE*          RAIN      45  41  87 SW6       29.81R
BRISTOL        CLOUDY    54  45  71 W6        29.80R
MORRISTOWN*    SUNNY     52  45  76 NW6       29.81S
SEVIERVILLE*   MOSUNNY   52  46  82 W3        29.83R
KNOXVILLE      PTCLDY    51  45  79 W6        29.83R
OAK RIDGE      CLEAR     50  45  83 W3        29.85S
CROSSVILLE     CLEAR     44  42  93 CALM      29.85S
NASHVILLE      CLEAR     47  44  90 S3        29.86S
$$

...KEY TO REMARKS...
VSB - VISIBILITY IN MILES
WCI - WIND CHILL INDEX
HX  - HEAT INDEX

$$




USA.gov is the U.S. government's official web portal to all federal, state and local government web resources and services.